TimeEST,TemperatureF,Dew PointF,Humidity,Sea Level PressureIn,VisibilityMPH,Wind Direction,Wind SpeedMPH,Gust SpeedMPH,PrecipitationIn,Events,Conditions,WindDirDegrees,DateUTC
12:51 AM,33.1,19.9,59,30.02,10.0,NNE,8.1,16.1,N/A,,Overcast,20,2013-01-18 05:51:00
1:51 AM,30.2,17.6,60,30.08,10.0,NNE,8.1,-,N/A,,Overcast,20,2013-01-18 06:51:00
2:51 AM,30.0,12.9,49,30.10,10.0,North,8.1,-,N/A,,Overcast,10,2013-01-18 07:51:00
3:51 AM,28.9,12.9,51,30.10,10.0,North,5.8,-,0.00,,Overcast,360,2013-01-18 08:51:00
4:51 AM,28.9,12.9,51,30.14,10.0,North,9.2,-,N/A,,Overcast,350,2013-01-18 09:51:00
5:51 AM,28.0,14.0,56,30.20,10.0,NNW,11.5,-,N/A,,Overcast,340,2013-01-18 10:51:00
6:51 AM,27.0,14.0,58,30.25,10.0,North,10.4,-,N/A,,Overcast,350,2013-01-18 11:51:00
7:51 AM,25.0,12.9,60,30.31,10.0,North,10.4,-,0.00,Snow,Light Snow,10,2013-01-18 12:51:00
8:51 AM,27.0,12.9,56,30.36,10.0,North,9.2,-,0.00,,Scattered Clouds,10,2013-01-18 13:51:00
9:51 AM,27.0,10.0,49,30.42,10.0,NNW,6.9,18.4,N/A,,Mostly Cloudy,330,2013-01-18 14:51:00
10:51 AM,28.0,6.1,39,30.43,10.0,NNW,13.8,24.2,N/A,,Partly Cloudy,340,2013-01-18 15:51:00
11:51 AM,28.0,6.1,39,30.42,10.0,North,12.7,18.4,N/A,,Mostly Cloudy,350,2013-01-18 16:51:00
12:51 PM,28.9,6.1,38,30.41,10.0,North,10.4,-,N/A,,Partly Cloudy,350,2013-01-18 17:51:00
1:51 PM,28.9,6.1,38,30.43,10.0,West,10.4,19.6,N/A,,Clear,270,2013-01-18 18:51:00
2:51 PM,30.0,5.0,35,30.43,10.0,NW,9.2,18.4,N/A,,Clear,310,2013-01-18 19:51:00
3:51 PM,30.0,5.0,35,30.43,10.0,West,4.6,-,N/A,,Clear,260,2013-01-18 20:51:00
4:51 PM,28.4,3.2,34,30.45,10.0,WSW,4.6,-,N/A,,Clear,250,2013-01-18 21:51:00
5:51 PM,32.0,5.0,32,30.48,10.0,Variable,6.9,-,N/A,,Clear,0,2013-01-18 22:51:00
6:51 PM,28.0,5.0,38,30.48,10.0,Variable,4.6,-,N/A,,Clear,0,2013-01-18 23:51:00
7:51 PM,26.1,8.1,47,30.47,10.0,South,5.8,-,N/A,,Clear,190,2013-01-19 00:51:00
8:51 PM,27.0,9.0,47,30.46,10.0,South,4.6,-,N/A,,Clear,190,2013-01-19 01:51:00
9:51 PM,27.0,12.0,53,30.45,10.0,South,8.1,-,N/A,,Clear,190,2013-01-19 02:51:00
10:51 PM,28.0,10.9,49,30.43,10.0,SSW,8.1,-,N/A,,Partly Cloudy,200,2013-01-19 03:51:00
11:51 PM,28.0,12.0,51,30.40,10.0,South,8.1,-,N/A,,Clear,180,2013-01-19 04:51:00